Location: Gajan
(43.0218°N, 1.1244°E)
Time: 15:53:50
(UTC+00:00)

Cosmos 1862 - Pass Details

Date: 22 April 2021
Orbit: 537 x 556 km, 82.5° (Epoch: 13 May)

Event Time Altitude Azimuth Distance (km) Brightness Sun altitude
Rises 21:36:36 0° 353° (N) 2,700 7.8 -26.2°
Reaches altitude 10° 21:38:46 10° 354° (N) 1,805 6.7 -26.5°
Enters shadow 21:41:20 39° 1° (N) 821 4.5 -26.7°
